LVKFQ KTEX-KBUR

Flight info

Callsign LVKFQ
Flight time N/A
Altitude 40000
Route DVC ROOLL Q94 WELUM JANNY5
Aircraft CL60/M-SBDE1E2E3FGHIJ4J5J7M3RWXYZ/LB1V1D1

Departure

Time 2026-05-03 21:19
Airport Telluride Regional Airport (KTEX)

Arrival

Time N/A
Airport Hollywood Burbank/Bob Hope Airport (KBUR)
Time Latitude Longitude Altitude Speed Heading
2026-05-03 21:19 37.99844 -108.09431 16561 ft 289 kts 285°
2026-05-03 21:19 38.00405 -108.11883 17573 ft 295 kts 285°
2026-05-03 21:19 38.00983 -108.14376 18692 ft 296 kts 285°
2026-05-03 21:19 38.01569 -108.16887 19734 ft 298 kts 285°
2026-05-03 21:20 38.02132 -108.19409 20755 ft 299 kts 279°
2026-05-03 21:20 38.02152 -108.22035 21756 ft 298 kts 258°
2026-05-03 21:20 38.01365 -108.24448 22653 ft 302 kts 242°
2026-05-03 21:20 38.00290 -108.26779 23540 ft 307 kts 241°
2026-05-03 21:21 37.99224 -108.29106 24466 ft 309 kts 242°
2026-05-03 21:21 37.98141 -108.31473 25378 ft 311 kts 242°
2026-05-03 21:21 37.97053 -108.33848 26276 ft 311 kts 242°
2026-05-03 21:21 37.95960 -108.36234 27089 ft 314 kts 243°
2026-05-03 21:22 37.94862 -108.38630 27832 ft 316 kts 243°
2026-05-03 21:22 37.93753 -108.41049 28591 ft 318 kts 243°
2026-05-03 21:22 37.92638 -108.43474 29405 ft 316 kts 243°
2026-05-03 21:22 37.91531 -108.45881 30131 ft 316 kts 244°
2026-05-03 21:23 37.90423 -108.48295 30738 ft 319 kts 244°
2026-05-03 21:23 37.89285 -108.50770 31330 ft 322 kts 244°
2026-05-03 21:23 37.88151 -108.53233 31863 ft 324 kts 244°
2026-05-03 21:23 37.87011 -108.55708 32468 ft 324 kts 244°
2026-05-03 21:24 37.85882 -108.58154 33027 ft 324 kts 245°
2026-05-03 21:24 37.84742 -108.60626 33502 ft 326 kts 245°
2026-05-03 21:24 37.83602 -108.63093 33981 ft 327 kts 245°
2026-05-03 21:24 37.82479 -108.65524 34518 ft 326 kts 244°
2026-05-03 21:25 37.81369 -108.67923 35127 ft 323 kts 244°
2026-05-03 21:25 37.80318 -108.70190 35762 ft 319 kts 245°
2026-05-03 21:25 37.79227 -108.72543 36420 ft 314 kts 244°
2026-05-03 21:25 37.78140 -108.74886 36967 ft 311 kts 245°
2026-05-03 21:26 37.77061 -108.77211 37454 ft 309 kts 245°
2026-05-03 21:26 37.75973 -108.79555 37927 ft 307 kts 245°
2026-05-03 21:26 37.74897 -108.81873 38295 ft 307 kts 244°
2026-05-03 21:26 37.73818 -108.84194 38659 ft 307 kts 245°
2026-05-03 21:27 37.72747 -108.86499 38968 ft 308 kts 245°
2026-05-03 21:27 37.71696 -108.88759 39261 ft 308 kts 245°
2026-05-03 21:27 37.70600 -108.91110 39631 ft 307 kts 245°
2026-05-03 21:27 37.69517 -108.93433 39969 ft 306 kts 245°
2026-05-03 21:28 37.68435 -108.95754 40220 ft 307 kts 245°
2026-05-03 21:28 37.67346 -108.98093 40209 ft 312 kts 245°
2026-05-03 21:28 37.65178 -109.02734 40200 ft 313 kts 245°
2026-05-03 21:29 37.62930 -109.07541 40186 ft 319 kts 245°
2026-05-03 21:29 37.60620 -109.12480 40190 ft 332 kts 244°
2026-05-03 21:30 37.58226 -109.17584 40168 ft 343 kts 245°
2026-05-03 21:30 37.55747 -109.22859 40160 ft 354 kts 245°
2026-05-03 21:31 37.53193 -109.28286 40132 ft 364 kts 244°
2026-05-03 21:31 37.50580 -109.33826 40147 ft 372 kts 244°
2026-05-03 21:32 37.47903 -109.39491 40139 ft 378 kts 244°
2026-05-03 21:32 37.45194 -109.45217 40129 ft 384 kts 244°
2026-05-03 21:33 37.42446 -109.51012 40135 ft 386 kts 244°
2026-05-03 21:33 37.39696 -109.56798 40143 ft 386 kts 244°
2026-05-03 21:34 37.36930 -109.62606 40142 ft 385 kts 244°
2026-05-03 21:34 37.34201 -109.68334 40154 ft 385 kts 244°
2026-05-03 21:35 37.31443 -109.74110 40152 ft 385 kts 244°
2026-05-03 21:35 37.28678 -109.79890 40147 ft 385 kts 243°
2026-05-03 21:36 37.25950 -109.85586 40151 ft 384 kts 244°
2026-05-03 21:36 37.23190 -109.91338 40151 ft 383 kts 244°
2026-05-03 21:37 37.20435 -109.97068 40146 ft 383 kts 243°
2026-05-03 21:37 37.17658 -110.02835 40147 ft 383 kts 244°
2026-05-03 21:38 37.14898 -110.08557 40143 ft 382 kts 244°
2026-05-03 21:38 37.12146 -110.14253 40133 ft 381 kts 244°
2026-05-03 21:39 37.09390 -110.19947 40125 ft 381 kts 244°
2026-05-03 21:39 37.06661 -110.25575 40129 ft 380 kts 244°
2026-05-03 21:40 37.03907 -110.31245 40136 ft 380 kts 244°
2026-05-03 21:40 37.01125 -110.36968 40139 ft 385 kts 244°
2026-05-03 21:41 36.98318 -110.42731 40136 ft 391 kts 244°
2026-05-03 21:41 36.95453 -110.48601 40140 ft 395 kts 243°
2026-05-03 21:42 36.92588 -110.54459 40139 ft 395 kts 244°
2026-05-03 21:42 36.89721 -110.60309 40136 ft 394 kts 244°
2026-05-03 21:43 36.86855 -110.66149 40139 ft 393 kts 243°
2026-05-03 21:43 36.83994 -110.71970 40131 ft 394 kts 243°
2026-05-03 21:44 36.81109 -110.77828 40136 ft 393 kts 243°
2026-05-03 21:44 36.78239 -110.83645 40136 ft 393 kts 243°
2026-05-03 21:45 36.75381 -110.89429 40134 ft 392 kts 243°
2026-05-03 21:45 36.72501 -110.95247 40126 ft 392 kts 243°
2026-05-03 21:46 36.69627 -111.01042 40141 ft 392 kts 243°
2026-05-03 21:46 36.66765 -111.06805 40130 ft 392 kts 243°
2026-05-03 21:47 36.63890 -111.12585 40123 ft 392 kts 243°
2026-05-03 21:47 36.61016 -111.18352 40141 ft 391 kts 243°
2026-05-03 21:48 36.58124 -111.24144 40135 ft 392 kts 243°
2026-05-03 21:48 36.55249 -111.29894 40139 ft 391 kts 243°
2026-05-03 21:49 36.52386 -111.35609 40141 ft 390 kts 243°
2026-05-03 21:49 36.49495 -111.41370 40163 ft 390 kts 243°
2026-05-03 21:50 36.46642 -111.47076 40153 ft 390 kts 245°
2026-05-03 21:50 36.44555 -111.53263 40149 ft 385 kts 253°
2026-05-03 21:51 36.42729 -111.59473 40152 ft 385 kts 253°
2026-05-03 21:51 36.40889 -111.65707 40150 ft 384 kts 252°
2026-05-03 21:52 36.39053 -111.71912 40148 ft 384 kts 252°
2026-05-03 21:52 36.37196 -111.78172 40145 ft 385 kts 252°
2026-05-03 21:53 36.35350 -111.84382 40163 ft 385 kts 252°
2026-05-03 21:53 36.33501 -111.90582 40179 ft 384 kts 252°
2026-05-03 21:54 36.31646 -111.96791 40175 ft 383 kts 252°
2026-05-03 21:54 36.29786 -112.03002 40182 ft 383 kts 252°
2026-05-03 21:55 36.27932 -112.09181 40178 ft 383 kts 252°
2026-05-03 21:55 36.26073 -112.15362 40171 ft 383 kts 252°
2026-05-03 21:56 36.24193 -112.21595 40149 ft 383 kts 252°
2026-05-03 21:56 36.22328 -112.27766 40121 ft 383 kts 252°
2026-05-03 21:57 36.20464 -112.33923 40133 ft 383 kts 252°
2026-05-03 21:57 36.18581 -112.40124 40123 ft 383 kts 252°
2026-05-03 21:58 36.16716 -112.46257 40122 ft 383 kts 251°
2026-05-03 21:58 36.14823 -112.52465 40126 ft 383 kts 252°
2026-05-03 21:59 36.12937 -112.58639 40120 ft 383 kts 251°
2026-05-03 21:59 36.11055 -112.64786 40124 ft 383 kts 252°
2026-05-03 22:00 36.09171 -112.70926 40135 ft 383 kts 251°
2026-05-03 22:00 36.07270 -112.77110 40129 ft 384 kts 251°
2026-05-03 22:01 36.05546 -112.82706 40143 ft 383 kts 251°
2026-05-03 22:01 36.03570 -112.89103 40141 ft 383 kts 251°
2026-05-03 22:02 36.01682 -112.95204 40156 ft 383 kts 251°
2026-05-03 22:02 35.99802 -113.01269 40172 ft 383 kts 251°
2026-05-03 22:03 35.97901 -113.07385 40138 ft 383 kts 251°
2026-05-03 22:03 35.95999 -113.13492 40139 ft 383 kts 251°
2026-05-03 22:04 35.94099 -113.19581 40120 ft 382 kts 251°
2026-05-03 22:04 35.92239 -113.25527 40115 ft 382 kts 251°
2026-05-03 22:05 35.90393 -113.31416 40100 ft 382 kts 251°
2026-05-03 22:05 35.88531 -113.37344 40065 ft 382 kts 251°
2026-05-03 22:06 35.86620 -113.43418 40035 ft 382 kts 251°
2026-05-03 22:06 35.84691 -113.49538 39991 ft 382 kts 251°
2026-05-03 22:07 35.82773 -113.55611 39996 ft 381 kts 251°
2026-05-03 22:07 35.80845 -113.61706 40013 ft 381 kts 251°
2026-05-03 22:08 35.79069 -113.67310 40018 ft 382 kts 250°
2026-05-03 22:08 35.76922 -113.74071 40039 ft 382 kts 250°
2026-05-03 22:09 35.74979 -113.80172 40007 ft 382 kts 250°
2026-05-03 22:10 35.72075 -113.89271 40000 ft 382 kts 250°
2026-05-03 22:10 35.70142 -113.95313 39964 ft 382 kts 250°
2026-05-03 22:11 35.68185 -114.01414 39963 ft 381 kts 250°
2026-05-03 22:11 35.66237 -114.07475 39959 ft 381 kts 250°
2026-05-03 22:12 35.64286 -114.13535 39976 ft 381 kts 250°
2026-05-03 22:12 35.62313 -114.19649 39982 ft 382 kts 250°
2026-05-03 22:13 35.60353 -114.25713 39985 ft 383 kts 250°
2026-05-03 22:13 35.58384 -114.31792 39969 ft 383 kts 250°
2026-05-03 22:14 35.56407 -114.37880 39961 ft 383 kts 250°
2026-05-03 22:14 35.54424 -114.43977 39960 ft 383 kts 250°
2026-05-03 22:15 35.52446 -114.50046 39956 ft 383 kts 250°
2026-05-03 22:15 35.50444 -114.56177 39929 ft 384 kts 250°
2026-05-03 22:16 35.48458 -114.62243 39908 ft 383 kts 250°
2026-05-03 22:16 35.46473 -114.68295 39879 ft 384 kts 249°
2026-05-03 22:17 35.44468 -114.74397 39889 ft 384 kts 249°
2026-05-03 22:17 35.42462 -114.80488 39909 ft 384 kts 249°
2026-05-03 22:18 35.40475 -114.86513 39930 ft 384 kts 250°
2026-05-03 22:18 35.38493 -114.92511 39944 ft 374 kts 250°
2026-05-03 22:19 35.36367 -114.99747 39944 ft 355 kts 252°
2026-05-03 22:19 35.35775 -115.01810 39942 ft 353 kts 251°
2026-05-03 22:20 35.34126 -115.07529 39949 ft 351 kts 252°
2026-05-03 22:20 35.32154 -115.14355 39957 ft 351 kts 251°
2026-05-03 22:21 35.30514 -115.20019 39966 ft 351 kts 252°
2026-05-03 22:21 35.29252 -115.24368 39984 ft 351 kts 251°
2026-05-03 22:22 35.26708 -115.33115 39351 ft 358 kts 251°
2026-05-03 22:22 35.25726 -115.36485 38809 ft 354 kts 252°
2026-05-03 22:22 35.24896 -115.39329 38366 ft 352 kts 251°
2026-05-03 22:23 35.24067 -115.42166 37905 ft 352 kts 252°
2026-05-03 22:23 35.23251 -115.44956 37439 ft 351 kts 251°
2026-05-03 22:23 35.22428 -115.47767 36964 ft 351 kts 252°
2026-05-03 22:23 35.21601 -115.50591 36496 ft 351 kts 251°
2026-05-03 22:24 35.20785 -115.53372 36030 ft 351 kts 252°
2026-05-03 22:24 35.19957 -115.56190 35561 ft 351 kts 251°
2026-05-03 22:24 35.19125 -115.59021 35081 ft 352 kts 251°
2026-05-03 22:24 35.18298 -115.61834 34615 ft 353 kts 252°
2026-05-03 22:25 35.17461 -115.64674 34129 ft 354 kts 252°
2026-05-03 22:25 35.16687 -115.67302 33693 ft 355 kts 251°
2026-05-03 22:25 35.15834 -115.70194 33218 ft 355 kts 251°
2026-05-03 22:25 35.15041 -115.72880 32746 ft 353 kts 251°
2026-05-03 22:26 35.14246 -115.75570 32288 ft 350 kts 251°
2026-05-03 22:26 35.13421 -115.78355 31812 ft 347 kts 251°
2026-05-03 22:26 35.12550 -115.81091 31351 ft 345 kts 246°
2026-05-03 22:26 35.11359 -115.83627 30879 ft 343 kts 240°
2026-05-03 22:27 35.10097 -115.86101 30414 ft 340 kts 241°
2026-05-03 22:27 35.08865 -115.88531 29960 ft 338 kts 240°
2026-05-03 22:27 35.07624 -115.90974 29501 ft 335 kts 240°
2026-05-03 22:27 35.06411 -115.93362 29061 ft 333 kts 240°
2026-05-03 22:28 35.05181 -115.95783 28615 ft 331 kts 240°
2026-05-03 22:28 35.03965 -115.98174 28169 ft 330 kts 240°
2026-05-03 22:28 35.02762 -116.00539 27744 ft 328 kts 240°
2026-05-03 22:28 35.01567 -116.02886 27300 ft 327 kts 240°
2026-05-03 22:29 35.00361 -116.05254 26864 ft 326 kts 239°
2026-05-03 22:29 34.99174 -116.07582 26440 ft 325 kts 239°
2026-05-03 22:29 34.97970 -116.09942 25986 ft 324 kts 239°
2026-05-03 22:29 34.96792 -116.12251 25583 ft 322 kts 239°
2026-05-03 22:30 34.95604 -116.14578 25155 ft 322 kts 239°
2026-05-03 22:30 34.94418 -116.16896 24711 ft 321 kts 238°
2026-05-03 22:30 34.93417 -116.18855 24336 ft 319 kts 238°
2026-05-03 22:30 34.92250 -116.21145 23929 ft 318 kts 239°
2026-05-03 22:31 34.91231 -116.23513 23556 ft 317 kts 244°
2026-05-03 22:31 34.90289 -116.25961 23480 ft 313 kts 243°
2026-05-03 22:31 34.89377 -116.28320 23675 ft 313 kts 243°
2026-05-03 22:31 34.88420 -116.30791 23574 ft 323 kts 243°
2026-05-03 22:32 34.87465 -116.33257 23501 ft 321 kts 244°
2026-05-03 22:32 34.86504 -116.35736 23459 ft 320 kts 244°
2026-05-03 22:32 34.85553 -116.38187 23370 ft 319 kts 244°
2026-05-03 22:32 34.84592 -116.40660 23289 ft 319 kts 244°
2026-05-03 22:33 34.83648 -116.43089 23244 ft 319 kts 244°
2026-05-03 22:33 34.82689 -116.45554 23180 ft 318 kts 244°
2026-05-03 22:33 34.81741 -116.47990 23091 ft 318 kts 243°
2026-05-03 22:33 34.80795 -116.50417 23016 ft 318 kts 243°
2026-05-03 22:34 34.79844 -116.52856 22996 ft 317 kts 244°
2026-05-03 22:34 34.78932 -116.55302 22921 ft 318 kts 248°
2026-05-03 22:34 34.78490 -116.57955 22788 ft 323 kts 259°
2026-05-03 22:34 34.78238 -116.60706 22560 ft 323 kts 259°
2026-05-03 22:35 34.77983 -116.63398 22401 ft 321 kts 259°
2026-05-03 22:35 34.77726 -116.66093 22210 ft 323 kts 259°
2026-05-03 22:35 34.77488 -116.68592 22077 ft 323 kts 259°
2026-05-03 22:35 34.77226 -116.71319 21911 ft 323 kts 259°
2026-05-03 22:36 34.76966 -116.74016 21712 ft 323 kts 259°
2026-05-03 22:36 34.76702 -116.76746 21525 ft 323 kts 259°
2026-05-03 22:36 34.76437 -116.79476 21316 ft 323 kts 259°
2026-05-03 22:36 34.76172 -116.82191 21145 ft 325 kts 258°
2026-05-03 22:37 34.75903 -116.84953 20940 ft 326 kts 258°
2026-05-03 22:37 34.75632 -116.87683 20754 ft 327 kts 259°
2026-05-03 22:37 34.75357 -116.90437 20578 ft 327 kts 258°
2026-05-03 22:37 34.75080 -116.93185 20342 ft 328 kts 259°
2026-05-03 22:38 34.74802 -116.95948 20195 ft 327 kts 258°
2026-05-03 22:38 34.74527 -116.98676 19994 ft 329 kts 259°
2026-05-03 22:38 34.74244 -117.01462 19780 ft 328 kts 258°
2026-05-03 22:38 34.73965 -117.04218 19599 ft 328 kts 258°
2026-05-03 22:39 34.73683 -117.06979 19400 ft 330 kts 258°
2026-05-03 22:39 34.73398 -117.09773 19211 ft 331 kts 258°
2026-05-03 22:39 34.73112 -117.12566 19036 ft 331 kts 258°
2026-05-03 22:39 34.72827 -117.15347 18833 ft 331 kts 258°
2026-05-03 22:40 34.72545 -117.18097 18641 ft 332 kts 258°
2026-05-03 22:40 34.72255 -117.20909 18463 ft 332 kts 258°
2026-05-03 22:40 34.71968 -117.23686 18265 ft 332 kts 259°
2026-05-03 22:40 34.71679 -117.26479 18079 ft 332 kts 259°
2026-05-03 22:41 34.71386 -117.29302 17886 ft 333 kts 258°
2026-05-03 22:41 34.71096 -117.32089 17697 ft 333 kts 258°
2026-05-03 22:41 34.70807 -117.34867 17509 ft 334 kts 259°
2026-05-03 22:41 34.70511 -117.37703 17295 ft 333 kts 259°
2026-05-03 22:42 34.70217 -117.40509 17138 ft 332 kts 258°
2026-05-03 22:42 34.69926 -117.43277 16943 ft 333 kts 259°
2026-05-03 22:42 34.69632 -117.46075 16745 ft 331 kts 259°
2026-05-03 22:42 34.69337 -117.48872 16564 ft 332 kts 259°
2026-05-03 22:43 34.69040 -117.51672 16368 ft 332 kts 259°
2026-05-03 22:43 34.68747 -117.54432 16123 ft 329 kts 259°
2026-05-03 22:43 34.68453 -117.57202 15985 ft 330 kts 259°
2026-05-03 22:43 34.68152 -117.60008 15737 ft 331 kts 259°
2026-05-03 22:44 34.67860 -117.62753 15543 ft 329 kts 259°
2026-05-03 22:44 34.67565 -117.65540 15344 ft 330 kts 258°
2026-05-03 22:44 34.67269 -117.68333 15183 ft 330 kts 258°
2026-05-03 22:44 34.66977 -117.71091 14997 ft 327 kts 258°
2026-05-03 22:45 34.66686 -117.73837 14789 ft 327 kts 258°
2026-05-03 22:45 34.66392 -117.76592 14599 ft 327 kts 258°
2026-05-03 22:45 34.66099 -117.79342 14402 ft 326 kts 258°
2026-05-03 22:45 34.65805 -117.82089 14256 ft 327 kts 259°
2026-05-03 22:46 34.65513 -117.84815 14041 ft 326 kts 258°
2026-05-03 22:46 34.65216 -117.87566 13858 ft 325 kts 259°
2026-05-03 22:46 34.64916 -117.90332 13580 ft 325 kts 258°
2026-05-03 22:46 34.64621 -117.93043 13188 ft 325 kts 259°
2026-05-03 22:47 34.64325 -117.95759 12786 ft 320 kts 258°
2026-05-03 22:47 34.64027 -117.98480 12484 ft 319 kts 259°
2026-05-03 22:47 34.63731 -118.01178 12174 ft 319 kts 258°
2026-05-03 22:47 34.63438 -118.03844 11841 ft 318 kts 259°
2026-05-03 22:48 34.63100 -118.06538 11530 ft 315 kts 254°
2026-05-03 22:48 34.62564 -118.09077 11213 ft 314 kts 251°
2026-05-03 22:48 34.61989 -118.11656 10896 ft 314 kts 251°
2026-05-03 22:48 34.61423 -118.14206 10580 ft 312 kts 251°
2026-05-03 22:49 34.60855 -118.16761 10268 ft 313 kts 251°
2026-05-03 22:49 34.60287 -118.19312 9943 ft 312 kts 251°
2026-05-03 22:49 34.59721 -118.21856 9649 ft 312 kts 251°
2026-05-03 22:49 34.59152 -118.24406 9342 ft 310 kts 251°
2026-05-03 22:50 34.58587 -118.26939 9010 ft 309 kts 252°
2026-05-03 22:50 34.58020 -118.29472 8720 ft 308 kts 252°
2026-05-03 22:50 34.57457 -118.31988 8366 ft 307 kts 252°
2026-05-03 22:50 34.56901 -118.34480 8086 ft 297 kts 252°
2026-05-03 22:51 34.56419 -118.36631 7958 ft 283 kts 252°
2026-05-03 22:51 34.55910 -118.38901 7946 ft 278 kts 251°
2026-05-03 22:51 34.55384 -118.41206 7949 ft 280 kts 250°
2026-05-03 22:51 34.54494 -118.43281 7898 ft 275 kts 227°
2026-05-03 22:52 34.53041 -118.44749 7697 ft 270 kts 212°
2026-05-03 22:52 34.51435 -118.46008 7542 ft 269 kts 211°
2026-05-03 22:52 34.49759 -118.47003 7372 ft 267 kts 200°
2026-05-03 22:52 34.48019 -118.47826 7205 ft 258 kts 200°
2026-05-03 22:53 34.46384 -118.48605 7003 ft 248 kts 200°
2026-05-03 22:53 34.44787 -118.49370 6804 ft 240 kts 200°
2026-05-03 22:53 34.43258 -118.50101 6552 ft 234 kts 200°
2026-05-03 22:53 34.41746 -118.50822 6286 ft 231 kts 200°
2026-05-03 22:54 34.40231 -118.51545 6014 ft 231 kts 200°
2026-05-03 22:54 34.38739 -118.52259 5739 ft 231 kts 201°
2026-05-03 22:54 34.37228 -118.52983 5486 ft 230 kts 200°
2026-05-03 22:54 34.35738 -118.53694 5229 ft 230 kts 200°
2026-05-03 22:55 34.34226 -118.54420 4962 ft 231 kts 200°
2026-05-03 22:55 34.32729 -118.55136 4697 ft 231 kts 200°
2026-05-03 22:55 34.31222 -118.55858 4438 ft 230 kts 200°
2026-05-03 22:55 34.29730 -118.56573 4193 ft 230 kts 200°
2026-05-03 22:56 34.28236 -118.57288 3940 ft 230 kts 200°
2026-05-03 22:56 34.26750 -118.58001 3696 ft 229 kts 200°
2026-05-03 22:56 34.25261 -118.58714 3642 ft 229 kts 200°
2026-05-03 22:56 34.23742 -118.59290 3647 ft 228 kts 185°
2026-05-03 22:57 34.22244 -118.59110 3669 ft 205 kts 163°
2026-05-03 22:57 34.21133 -118.58372 3656 ft 170 kts 138°
2026-05-03 22:57 34.20437 -118.57279 3675 ft 165 kts 120°
2026-05-03 22:57 34.20068 -118.55960 3661 ft 172 kts 102°
2026-05-03 22:58 34.19992 -118.54555 3578 ft 176 kts 92°
2026-05-03 22:58 34.19985 -118.53230 3391 ft 159 kts 92°
2026-05-03 22:58 34.19985 -118.52132 3319 ft 136 kts 93°
2026-05-03 22:59 34.19931 -118.47760 2490 ft 149 kts 93°
2026-05-03 22:59 34.19914 -118.46628 2332 ft 139 kts 93°
2026-05-03 23:00 34.19885 -118.44498 1973 ft 137 kts 93°